Bedford, Massachusetts, United States (01730)
Lat: 42.49N, Lon: 71.28W
Wx Zone: MAZ005
Local Info
Past Weather Observations for Wednesday, May 25, 2016

NOTE: This archive is for the closest National Weather Service station to Bedford. Information may differ from the station used for current weather conditions.

Click here for Long-term Archive

Time Weather Temperature Dewpoint Humidity Pressure Winds Precip Visibility
23:56
Clear
64°F / 18°C 54°F / 12°C 68% 30.01 in
(1016 mb)
SSW 5.8 mph
(SSW 9 kph)
- 10SM
22:56
Clear
70°F / 21°C 54°F / 12°C 57% 30.01 in
(1016 mb)
SSW 5.8 mph
(SSW 9 kph)
- 10SM
21:56
Clear
72°F / 22°C 54°F / 12°C 53% 29.98 in
(1015 mb)
SSW 4.6 mph
(SSW 7 kph)
- 10SM
20:56
Clear
73°F / 23°C 52°F / 11°C 47% 29.98 in
(1015 mb)
SSW 5.8 mph
(SSW 9 kph)
- 10SM
19:56
Clear
75°F / 24°C 52°F / 11°C 44% 29.98 in
(1015 mb)
SSW 8.1 mph
(SSW 13 kph)
- 10SM
18:56
Mostly Cloudy
81°F / 27°C 50°F / 10°C 34% 29.95 in
(1014 mb)
SSW 9.2 mph
(SSW 15 kph)
- 10SM
17:56
Clear
84°F / 29°C 46°F / 8°C 27% 29.95 in
(1014 mb)
W 9.2 mph
(W 15 kph)
- 10SM
16:56
Mostly Cloudy
88°F / 31°C 45°F / 7°C 22% 29.92 in
(1013 mb)
W 10.4 mph
(W 17 kph)
- 10SM
15:56
Mostly Cloudy
90°F / 32°C 45°F / 7°C 21% 29.92 in
(1013 mb)
W 12.7 mph
(W 20 kph)
- 10SM
14:56
Clear
88°F / 31°C 45°F / 7°C 22% 29.92 in
(1013 mb)
W 12.7 mph
(W 20 kph)
- 10SM
14:53
Clear
88°F / 31°C 45°F / 7°C 22% 29.92 in
(1013 mb)
NW 15 mph
(NW 24 kph)
- 10SM
13:56
Clear
88°F / 31°C 48°F / 9°C 25% 29.92 in
(1013 mb)
Variable 6.9 mph
(Variable 11 kph)
- 10SM
12:56
Clear
84°F / 29°C 54°F / 12°C 35% 29.95 in
(1014 mb)
SW 9.2 mph
(SW 15 kph)
- 10SM
11:56
Clear
81°F / 27°C 54°F / 12°C 39% 29.95 in
(1014 mb)
SW 5.8 mph
(SW 9 kph)
- 10SM
10:56
Clear
77°F / 25°C 55°F / 13°C 47% 29.98 in
(1015 mb)
Variable 4.6 mph
(Variable 7 kph)
- 10SM
09:56
Clear
73°F / 23°C 57°F / 14°C 57% 29.98 in
(1015 mb)
Variable 4.6 mph
(Variable 7 kph)
- 10SM
08:56
Clear
66°F / 19°C 57°F / 14°C 73% 30.01 in
(1016 mb)
Variable 3.5 mph
(Variable 6 kph)
- 10SM
08:36
Partly Cloudy
64°F / 18°C 57°F / 14°C 78% 30.01 in
(1016 mb)
SSW 3.5 mph
(SSW 6 kph)
- 10SM
07:56
Overcast
61°F / 16°C 57°F / 14°C 88% 29.98 in
(1015 mb)
Variable 3.5 mph
(Variable 6 kph)
- 10SM
07:49
Overcast
61°F / 16°C 57°F / 14°C 88% 30.01 in
(1016 mb)
S 5.8 mph
(S 9 kph)
- 10SM
06:56
Overcast
57°F / 14°C 55°F / 13°C 94% 30.01 in
(1016 mb)
SSE 6.9 mph
(SSE 11 kph)
- 7SM
06:02
Overcast
Fog And Mist
55°F / 13°C 55°F / 13°C 100% 30.01 in
(1016 mb)
SW 4.6 mph
(SW 7 kph)
- 3SM
05:56
Overcast
Fog And Mist
55°F / 13°C 55°F / 13°C 100% 30.01 in
(1016 mb)
SSE 6.9 mph
(SSE 11 kph)
- 1SM
05:24
Overcast
Fog And Mist
55°F / 13°C 55°F / 13°C 100% 30.01 in
(1016 mb)
SSE 5.8 mph
(SSE 9 kph)
- 3SM
05:15
Overcast
Fog And Mist
55°F / 13°C 55°F / 13°C 100% 29.98 in
(1015 mb)
SSE 4.6 mph
(SSE 7 kph)
- 2 1/2SM
04:56
Overcast
Fog And Mist
55°F / 13°C 54°F / 12°C 94% 29.98 in
(1015 mb)
SSE 5.8 mph
(SSE 9 kph)
- 4SM
03:56
Overcast
55°F / 13°C 54°F / 12°C 94% 30.01 in
(1016 mb)
SW 3.5 mph
(SW 6 kph)
- 7SM
03:05
Overcast
Fog And Mist
54°F / 12°C 54°F / 12°C 100% 29.98 in
(1015 mb)
SSE 3.5 mph
(SSE 6 kph)
- 4SM
02:56
Overcast
Fog And Mist
54°F / 12°C 54°F / 12°C 100% 29.98 in
(1015 mb)
SW 3.5 mph
(SW 6 kph)
- 4SM
02:35
Overcast
Fog And Mist
54°F / 12°C 54°F / 12°C 100% 29.98 in
(1015 mb)
SW 3.5 mph
(SW 6 kph)
- 3SM
01:56
Overcast
54°F / 12°C 54°F / 12°C 100% 29.98 in
(1015 mb)
Calm - 10SM
00:56
Overcast
54°F / 12°C 54°F / 12°C 100% 29.98 in
(1015 mb)
Calm - 10SM
00:29
Overcast
54°F / 12°C 54°F / 12°C 100% 29.98 in
(1015 mb)
E 3.5 mph
(E 6 kph)
- 7SM
Time Weather Temperature Dewpoint Humidity Pressure Winds Precip Visibility


Weather for websites

WeatherForYou.com, LLC is not responsible for any damages or problems caused by this service. Current weather conditions are obtained from the closest station including government and personal stations which may have varying degrees of accuracy. Weather forecasts are derived from the NOAA NDFD. Like all things, this site belongs to Jesus Christ... He just trusts us to maintain it. If you have any questions or comments email webmaster@weatherforyou.com

Copyright © 2016, WeatherForYou.com LLC. All rights reserved.